Home   Weather   Owen Sound   Past weeks

Flag for Canada Past Weather in Owen Sound, Ontario, Canada — Yesterday and Last 2 Weeks

Now
68 °F

Broken clouds.


Feels Like: 68 °F
Forecast: 64 / 82 °F
Wind: 8 mph from Southwest

Location: Wiarton

Current Time: Aug 21, 2017 at 8:26:56 am

Latest Report: Aug 21, 2017 at 8:00 am


Visibility: 15 mi

Pressure: 30.07 "Hg

Humidity: 100%

Dew Point: 68 °F

Location of Owen SoundLocation

Past Weather in Owen Sound — Graph

°F

Owen Sound Temperature Yesterday

Maximum temperature yesterday: 77 °F (at 4:00 pm)
Minimum temperature yesterday: 55 °F (at 3:00 am)
Average temperature yesterday: 67 °F

High & Low Weather Summary for the Past Weeks

 TemperatureHumidityPressure
High79 °F (Aug 10, 5:00 pm)100% (Aug 6, 6:00 am)30.16 "Hg (Aug 6, 6:00 am)
Low48 °F (Aug 8, 4:00 am)47% (Aug 6, 12:00 pm)29.62 "Hg (Aug 18, 4:00 am)
Average66 °F90%29.96 "Hg
* Reported Aug 6 6:00 am — Aug 21 6:00 am, Owen Sound. Weather by CustomWeather, © 2017

Note: Actual official high and low records may vary slightly from our data, if they occured in-between our weather recording intervals... More about our weather records

Advertising

Owen Sound Weather History for the Previous 24 Hours

Scroll right to see more
 ConditionsComfort  
Time TempWeatherWind HumidityBarometerVisibility
6:00 am
Mon, Aug 21
66 °FPassing clouds.9 mph100%30.04 "Hg15 mi
5:00 am64 °FPassing clouds.9 mph100%30.05 "Hg15 mi
4:00 am64 °FPassing clouds.9 mph100%30.06 "Hg15 mi
3:00 am66 °FPassing clouds.9 mph100%30.06 "Hg15 mi
2:00 am64 °FClear.7 mph100%30.06 "Hg12 mi
1:00 am66 °FClear.10 mph100%30.06 "Hg12 mi
12:00 am66 °FClear.9 mph94%30.04 "Hg12 mi
11:00 pm
Sun, Aug 20
68 °FPassing clouds.9 mph83%30.05 "Hg15 mi
10:00 pm68 °FPassing clouds.8 mph88%30.05 "Hg15 mi
9:00 pm68 °FPassing clouds.7 mph100%30.05 "Hg15 mi
8:00 pm72 °FScattered clouds.7 mph83%30.04 "Hg15 mi
7:00 pm75 °FScattered clouds.8 mph69%30.04 "Hg15 mi
6:00 pm77 °FScattered clouds.12 mph65%30.04 "Hg15 mi
5:00 pm77 °FPassing clouds.13 mph65%30.04 "Hg15 mi
4:00 pm77 °FPassing clouds.14 mph61%30.04 "Hg15 mi
3:00 pm75 °FPassing clouds.9 mph78%30.06 "Hg15 mi
2:00 pm75 °FPassing clouds.12 mph74%30.06 "Hg15 mi
1:00 pm73 °FPassing clouds.14 mph83%30.05 "Hg15 mi
12:00 pm73 °FPassing clouds.12 mph83%30.06 "Hg15 mi
11:00 am73 °FPassing clouds.12 mph83%30.05 "Hg15 mi
10:00 am72 °FPassing clouds.8 mph100%30.05 "Hg15 mi
9:00 am66 °FPassing clouds.7 mph100%30.03 "Hg15 mi
8:00 am63 °FPassing clouds.5 mph100%30.02 "Hg15 mi
Weather by CustomWeather, © 2017

See weather overviewHow to use our weather pages